Park Rapids, MN

7:47 PM CST on February 21, 2018 (GMT -0600)
Park Rapids Municipal

Weather History for KPKD - November, 2013

Change the Weather History Date:

Monday, November 11, 2013

  Actual Average Record
Temperature  
Mean Temperature 10 °F -  
Max Temperature 15 °F 35 °F 66 °F (2005)
Min Temperature 6 °F 18 °F -6 °F (1986)
Degree Days  
Heating Degree Days 54    
Moisture  
Dew Point 4 °F    
Average Humidity 71    
Maximum Humidity 83    
Minimum Humidity 58    
Precipitation  
Precipitation 0.00 in - - ()
Sea Level Pressure  
Sea Level Pressure 30.55 in    
Wind  
Wind Speed 15 mph (NNW)    
Max Wind Speed 20 mph    
Max Gust Speed 25 mph    
Visibility 10 miles    
Events Snow    
Averages and records for this station are not official NWS values.
T = Trace of Precipitation, MM = Missing Value Source: NWS Daily Summary

Daily Weather History Graph

Daily Weather History Graph

Search for Another Location

Airport or City:

Trip Planner

Search our weather history database for the weather conditions in past years. The results will help you decide how hot, cold, wet, or windy it might be!

Date:

Astronomy

Nov. 11, 2013 Rise Set
Actual Time 7:17 AM CST 4:50 PM CST
Civil Twilight 6:45 AM CST 5:22 PM CST
Nautical Twilight 6:08 AM CST 5:59 PM CST
Astronomical Twilight 5:32 AM CST 6:35 PM CST
Moon 1:51 PM CST (11/11) 12:41 AM CST (11/11)
Length of Visible Light 10h 37m
Length of Day
9h 32m
Waxing Gibbous, 66% of the Moon is Illuminated
Nov 11
Waxing Gibbous
Nov 17
Full
Nov 25
Last Quarter
Dec 2
New
Dec 9
First Quarter

Hourly Weather History & Observations

Time (CST) Temp. Windchill Dew Point Humidity Pressure Visibility Wind Dir Wind Speed Gust Speed Precip Events Conditions
12:53 AM 15.1 °F -1.6 °F 8.1 °F 74% 30.33 in 10.0 mi North 18.4 mph 24.2 mph 0.00 in Snow Light Snow
1:40 AM 12.2 °F -5.3 °F 5.0 °F 73% 30.27 in 10.0 mi North 18.4 mph 24.2 mph 0.00 in   Scattered Clouds
1:51 AM 12.2 °F -5.8 °F 5.0 °F 73% 30.28 in 10.0 mi NNW 19.6 mph 25.3 mph 0.00 in   Mostly Cloudy
1:53 AM 12.0 °F -6.0 °F 5.0 °F 73% 30.35 in 10.0 mi NNW 19.6 mph 25.3 mph 0.00 in   Mostly Cloudy
2:08 AM 12.2 °F -5.3 °F 3.2 °F 67% 30.29 in 10.0 mi NNW 18.4 mph 25.3 mph N/A   Mostly Cloudy
2:27 AM 10.4 °F -8.2 °F 3.2 °F 73% 30.30 in 10.0 mi NNW 19.6 mph 24.2 mph N/A   Mostly Cloudy
2:53 AM 10.9 °F -5.4 °F 3.0 °F 70% 30.38 in 10.0 mi NNW 15.0 mph - N/A   Scattered Clouds
3:20 AM 10.4 °F -4.8 °F 3.2 °F 73% 30.32 in 10.0 mi NNW 12.7 mph 21.9 mph N/A   Mostly Cloudy
3:53 AM 10.9 °F -4.1 °F 3.9 °F 73% 30.40 in 10.0 mi NNW 12.7 mph - N/A   Overcast
4:53 AM 10.9 °F -5.4 °F 5.0 °F 77% 30.42 in 10.0 mi North 15.0 mph - N/A   Mostly Cloudy
5:53 AM 10.0 °F -5.2 °F 3.0 °F 73% 30.46 in 10.0 mi North 12.7 mph - N/A   Mostly Cloudy
6:53 AM 10.0 °F -3.7 °F 3.9 °F 76% 30.49 in 10.0 mi NNW 10.4 mph 18.4 mph N/A   Overcast
7:53 AM 10.9 °F -3.4 °F 3.9 °F 73% 30.53 in 10.0 mi NNW 11.5 mph 23.0 mph N/A   Overcast
8:53 AM 10.0 °F -5.9 °F 5.0 °F 80% 30.56 in 7.0 mi NW 13.8 mph - N/A   Overcast
9:53 AM 10.9 °F -5.9 °F 3.9 °F 73% 30.59 in 10.0 mi North 16.1 mph 21.9 mph N/A   Overcast
10:53 AM 12.0 °F -4.0 °F 5.0 °F 73% 30.62 in 4.0 mi NNW 15.0 mph 20.7 mph 0.00 in Snow Light Snow
11:53 AM 12.9 °F -1.6 °F 3.9 °F 67% 30.63 in 10.0 mi North 12.7 mph 18.4 mph 0.00 in   Overcast
12:53 PM 14.0 °F 1.2 °F 3.0 °F 62% 30.63 in 10.0 mi North 10.4 mph - 0.00 in   Overcast
1:53 PM 15.1 °F 1.1 °F 5.0 °F 64% 30.65 in 10.0 mi NW 12.7 mph 21.9 mph N/A   Mostly Cloudy
2:53 PM 14.0 °F -0.2 °F 3.9 °F 64% 30.66 in 10.0 mi NNW 12.7 mph 19.6 mph N/A   Mostly Cloudy
3:23 PM 15.8 °F 0.9 °F 3.2 °F 58% 30.56 in 10.0 mi North 15.0 mph 21.9 mph N/A   Scattered Clouds
3:53 PM 15.1 °F 0.5 °F 5.0 °F 64% 30.68 in 10.0 mi NW 13.8 mph - N/A   Mostly Cloudy
4:17 PM 14.0 °F -0.8 °F 3.2 °F 62% 30.57 in 10.0 mi North 13.8 mph - N/A   Scattered Clouds
4:53 PM 12.0 °F -2.0 °F 3.0 °F 67% 30.69 in 10.0 mi NNW 11.5 mph - N/A   Clear
5:17 PM 12.2 °F -1.0 °F 3.2 °F 67% 30.60 in 10.0 mi NNW 10.4 mph - N/A   Mostly Cloudy
5:53 PM 12.9 °F -2.8 °F 3.9 °F 67% 30.72 in 10.0 mi NNW 15.0 mph - N/A   Overcast
6:53 PM 12.9 °F -0.2 °F 3.9 °F 67% 30.75 in 10.0 mi NNW 10.4 mph - N/A   Overcast
7:53 PM 10.9 °F -2.6 °F 3.0 °F 70% 30.76 in 10.0 mi NNW 10.4 mph - N/A   Mostly Cloudy
8:53 PM 10.9 °F -2.6 °F 3.0 °F 70% 30.77 in 10.0 mi NNW 10.4 mph - N/A   Mostly Cloudy
9:05 PM 10.4 °F -2.4 °F 3.2 °F 73% 30.66 in 10.0 mi NNW 9.2 mph - N/A   Scattered Clouds
9:53 PM 8.1 °F -0.5 °F 3.0 °F 80% 30.79 in 10.0 mi NNW 4.6 mph - N/A   Clear
10:53 PM 6.1 °F -0.9 °F 1.9 °F 83% 30.79 in 10.0 mi WNW 3.5 mph - N/A   Clear
11:53 PM 6.1 °F -2.8 °F 1.9 °F 83% 30.80 in 10.0 mi WNW 4.6 mph - N/A   Clear